Location: Bouysse
(45.3674°N, 1.8947°E)
Time: 17:33:39
(UTC+00:00)

NPP - Pass Details

Date: 07 June 2020
Orbit: 826 x 828 km, 98.7° (Epoch: 13 July)

Event Time Altitude Azimuth Distance (km) Brightness Sun altitude
Rises 01:12:01 0° 19° (NNE) 3,378 8.5 -19.4°
Reaches altitude 10° 01:14:28 10° 25° (NNE) 2,440 7.3 -19.3°
Maximum altitude 01:19:41 48° 99° (E) 1,077 4.3 -18.9°
Enters shadow 01:22:36 24° 161° (SSE) 1,633 4.8 -18.8°
